Location: Fredericksburg
(30.2750°N, 98.8720°W)
Time: 23:15:17
(UTC-05:00)

Amateur Radio Satellites - All Passes

Search period start: 26 May 2017 22:45
Search period end: 27 May 2017 22:45
Location: Fredericksburg, 30.2750°N, 98.8720°W

Satellite Date Start Highest point End Downlink Frequencies (MHz)
Time Altitude Azimuth
TIGRISAT 26 May 22:46:31 22:50:02 21° 96° (E) 22:53:32 435.000
UNISAT 6 26 May 23:17:24 23:21:57 54° 100° (E) 23:26:32 437.425
LO-87 26 May 23:18:38 23:21:13 19° 72° (ENE) 23:23:49 145.935 - 145.965
PRISM 26 May 23:21:28 23:25:32 79° 101° (ESE) 23:29:34 437.425
FO-29 26 May 23:32:16 23:39:01 77° 103° (ESE) 23:46:31 435.910
ESTCUBE 1 26 May 23:42:47 23:46:34 26° 72° (ENE) 23:50:21 437.505/2401.250
SO-50 26 May 23:44:48 23:48:41 27° 304° (WNW) 23:52:33 436.795
TIGRISAT 27 May 00:22:39 00:26:36 28° 288° (WNW) 00:30:35 435.000
NANOSAT C BR1 27 May 00:29:46 00:32:24 16° 95° (E) 00:35:02 145.865
SPROUT 27 May 00:30:17 00:33:24 20° 71° (ENE) 00:36:32 437.525
POLYITAN 1 27 May 00:34:03 00:37:17 21° 96° (E) 00:40:29 437.675
VELOX 1 27 May 00:37:33 00:41:14 26° 72° (ENE) 00:44:53 145.980
DUCHIFAT 1 27 May 00:39:58 00:43:00 19° 96° (E) 00:46:02 145.980
QB50P2 27 May 00:42:19 00:46:02 29° 98° (E) 00:49:44 145.880/145.840
AIST 2D 27 May 00:44:30 00:48:03 69° 101° (E) 00:51:34 435.315
RS-15 27 May 00:51:33 00:58:33 18° 99° (E) 01:05:39 29.354- 29.394
LO-87 27 May 00:52:16 00:54:32 16° 264° (W) 00:56:47 145.935 - 145.965
UNISAT 6 27 May 00:56:36 00:58:09 12° 293° (WNW) 00:59:42 437.425
UKube-1 27 May 01:06:18 01:07:42 11° 67° (ENE) 01:09:06 .
DX 1 27 May 01:12:31 01:15:50 22° 71° (ENE) 01:19:09 434.975-435.025
EO-79 27 May 01:18:52 01:23:09 79° 102° (ESE) 01:27:24 145.935-145.965
FO-29 27 May 01:19:42 01:23:28 16° 294° (WNW) 01:27:26 435.910
ESTCUBE 1 27 May 01:19:50 01:23:15 21° 264° (W) 01:26:42 437.505/2401.250
YUBILEINY 27 May 01:39:51 01:48:12 54° 90° (E) 01:56:37 435.215
Oscar 19 27 May 02:00:24 02:03:40 17° 95° (E) 02:06:55 437.125/150
50 SAT 27 May 02:02:22 02:05:40 42° 260° (W) 02:08:58 437.505
NANOSAT C BR1 27 May 02:04:23 02:08:05 30° 287° (WNW) 02:11:47 145.865
SPROUT 27 May 02:05:43 02:09:07 24° 263° (W) 02:12:32 437.525
POLYITAN 1 27 May 02:09:29 02:12:56 24° 288° (WNW) 02:16:22 437.675
JUGNU 27 May 02:11:38 02:14:39 14° 162° (SSE) 02:17:40 437.505
VELOX 1 27 May 02:14:18 02:17:34 20° 264° (W) 02:20:51 145.980
DUCHIFAT 1 27 May 02:15:05 02:18:34 25° 288° (WNW) 02:22:04 145.980
QB50P2 27 May 02:18:43 02:21:32 17° 290° (WNW) 02:24:21 145.880/145.840
BUGSAT 1 27 May 02:31:13 02:35:17 58° 285° (WNW) 02:39:24 437.445
UKube-1 27 May 02:39:08 02:43:15 46° 260° (W) 02:47:25 .
DX 1 27 May 02:48:20 02:51:50 24° 263° (W) 02:55:22 434.975-435.025
RS-15 27 May 02:57:19 03:09:18 89° 115° (ESE) 03:21:44 29.354- 29.394
Gurwin Techsat 1B 27 May 03:18:44 03:24:02 69° 102° (ESE) 03:29:18 435.225
ITUPSAT 1 27 May 03:24:06 03:28:25 36° 72° (ENE) 03:32:45 437.325
ISS 27 May 03:24:39 03:25:31 11° 33° (NNE) 03:26:22 437.550
MOZHAYETS 4 27 May 03:36:25 03:40:09 25° 71° (ENE) 03:43:52
Oscar 19 27 May 03:38:15 03:43:04 41° 288° (WNW) 03:47:51 437.125/150
YUBILEINY 27 May 03:38:21 03:45:15 26° 286° (WNW) 03:52:14 435.215
BEESAT 27 May 03:56:51 04:01:36 88° 76° (ENE) 04:06:23 436.000
JUGNU 27 May 03:58:18 04:03:06 25° 171° (S) 04:07:55 437.505
Tancredo 1 27 May 04:23:15 04:26:18 77° 46° (NE) 04:29:20 437.200
O/OREOS (USA 219) 27 May 04:24:50 04:29:24 68° 106° (ESE) 04:33:58 437.305
CUBESAT XI-V 27 May 04:25:04 04:27:27 14° 68° (ENE) 04:29:49 437.345
KKS-1 27 May 04:28:40 04:30:15 12° 67° (ENE) 04:31:50 437.445
ITAMSAT 1 27 May 04:40:29 04:45:35 54° 101° (E) 04:50:40 435.822/435.867
SRMSAT 27 May 04:40:36 04:43:17 13° 162° (SSE) 04:45:59 437.500
ISS 27 May 04:59:04 05:02:18 67° 228° (SW) 05:05:32 437.550
Gurwin Techsat 1B 27 May 05:01:37 05:03:19 12° 295° (WNW) 05:05:01 435.225
ITUPSAT 1 27 May 05:03:10 05:06:16 17° 265° (W) 05:09:22 437.325
AO-7 27 May 05:08:06 05:16:29 77° 106° (ESE) 05:24:50 .
MOZHAYETS 4 27 May 05:13:32 05:17:09 23° 264° (W) 05:20:48
RS-15 27 May 05:14:07 05:23:30 25° 318° (NW) 05:33:06 29.354- 29.394
AO-85 27 May 05:22:03 05:26:13 50° 299° (WNW) 05:30:09 145.980
PCSat 27 May 05:28:16 05:33:35 55° 63° (ENE) 05:38:52 145.827
JUGNU 27 May 05:46:30 05:51:38 30° 181° (S) 05:56:47 437.505
BEESAT 2 27 May 05:51:44 05:55:07 28° 111° (ESE) 05:58:34 435.950
CUBESAT XI-V 27 May 05:59:52 06:04:22 45° 261° (W) 06:08:53 437.345
KKS-1 27 May 06:02:05 06:06:20 47° 260° (W) 06:10:36 437.445
BEESAT 3 27 May 06:10:16 06:14:01 45° 300° (WNW) 06:17:51 437.485
ITAMSAT 1 27 May 06:21:49 06:24:31 14° 294° (WNW) 06:27:14 435.822/435.867
SRMSAT 27 May 06:27:09 06:31:54 25° 170° (S) 06:36:40 437.500
STARS 27 May 06:31:24 06:35:39 53° 259° (W) 06:39:55 437.465
LilacSat-2 27 May 06:36:03 06:36:48 10° 93° (E) 06:37:33 437.200
DOVE 4 27 May 06:37:51 06:41:21 25° 98° (E) 06:44:55 437.250
CUTE-I 27 May 06:41:28 06:44:10 14° 94° (E) 06:46:52 437.470
AO-7 27 May 07:02:50 07:08:19 20° 301° (WNW) 07:13:50 .
XW-2D 27 May 07:07:16 07:10:37 28° 97° (E) 07:13:57 145.860 - 145.880
PCSat 27 May 07:13:38 07:16:26 14° 256° (WSW) 07:19:14 145.827
XW-2B 27 May 07:15:04 07:18:37 35° 99° (E) 07:22:07 145.730 - 145.750
NUDT-PHONESAT 27 May 07:24:26 07:27:55 35° 98° (E) 07:31:22 437.300
NO-84 27 May 07:24:54 07:27:02 13° 119° (ESE) 07:29:09 435.350 FM
XW-2F 27 May 07:27:05 07:30:49 51° 100° (E) 07:34:31 145.980 - 146.000
XW-2C 27 May 07:28:33 07:32:20 57° 100° (E) 07:36:06 145.795 - 145.815
BEESAT 2 27 May 07:30:12 07:32:52 17° 306° (NW) 07:35:34 435.950
KAITUO 1B 27 May 07:33:39 07:37:20 49° 100° (E) 07:40:59 145.475/437.950
JUGNU 27 May 07:35:32 07:40:11 23° 191° (S) 07:44:50 437.505
STRAND 1 27 May 07:36:44 07:41:05 29° 71° (ENE) 07:45:25 437.568
HO-68 27 May 08:01:32 08:07:19 26° 97° (E) 08:13:03 435.675
LilacSat-2 27 May 08:07:36 08:11:10 36° 285° (WNW) 08:14:42 437.200
SRMSAT 27 May 08:15:27 08:20:37 30° 180° (S) 08:25:46 437.500
DOVE 4 27 May 08:15:53 08:18:52 19° 288° (WNW) 08:21:55 437.250
CUTE-I 27 May 08:19:14 08:24:25 53° 286° (WNW) 08:29:37 437.470
CUTE 1.7 + AOD 2 27 May 08:19:17 08:22:53 27° 97° (E) 08:26:27 437.475
SO-50 27 May 08:20:36 08:25:02 54° 61° (ENE) 08:29:28 436.795
M-CUBED/EXP-1 PRIME 27 May 08:30:30 08:33:53 23° 69° (ENE) 08:37:06 437.505
XW-2D 27 May 08:42:33 08:44:29 14° 290° (WNW) 08:46:26 145.860 - 145.880
XW-2B 27 May 08:51:14 08:52:24 11° 291° (WNW) 08:53:34 145.730 - 145.750
NO-84 27 May 08:59:55 09:04:14 57° 311° (NW) 09:08:31 435.350 FM
NUDT-PHONESAT 27 May 09:00:33 09:01:25 11° 291° (WNW) 09:02:16 437.300
CUBEBUG 2 27 May 09:03:17 09:07:45 45° 99° (E) 09:12:16 437.445
SEEDS 27 May 09:06:45 09:10:56 68° 101° (E) 09:15:04 437.485
UWE-3 27 May 09:12:27 09:16:37 33° 98° (E) 09:20:49 435.000/436.395/437.385
STRAND 1 27 May 09:16:05 09:20:08 24° 263° (W) 09:24:14 437.568
XW-2A 27 May 09:17:31 09:20:50 46° 283° (WNW) 09:24:07 145.665 - 145.685
JUGNU 27 May 09:26:27 09:28:38 12° 199° (SSW) 09:30:49 437.505
Oscar 11 27 May 09:42:38 09:46:17 26° 97° (E) 09:49:54 .
FO-29 27 May 09:43:09 09:45:19 13° 65° (ENE) 09:47:29 435.910
HO-68 27 May 09:48:18 09:55:07 47° 290° (WNW) 10:01:54 435.675
CUTE 1.7 + AOD 2 27 May 09:55:34 09:58:28 18° 289° (WNW) 10:01:20 437.475
RS-15 27 May 09:57:04 10:04:00 16° 33° (NNE) 10:10:45 29.354- 29.394
SO-50 27 May 10:04:00 10:04:58 11° 253° (WSW) 10:05:56 436.795
AAUSAT CUBESAT 2 27 May 10:04:27 10:08:26 49° 285° (WNW) 10:12:23 437.432
SRMSAT 27 May 10:04:34 10:09:18 25° 190° (S) 10:14:03 437.500
M-CUBED/EXP-1 PRIME 27 May 10:04:45 10:08:09 22° 258° (WSW) 10:11:25 437.505
PRISM 27 May 10:05:23 10:08:45 25° 72° (ENE) 10:12:07 437.425
AO-73 27 May 10:09:26 10:14:00 78° 101° (E) 10:18:34 145.935
UNISAT 6 27 May 10:11:25 10:14:41 22° 71° (ENE) 10:18:00 437.425
DELFI C3 27 May 10:18:04 10:20:21 15° 95° (E) 10:22:37 145.870
ZACube-1 27 May 10:23:55 10:28:26 63° 284° (WNW) 10:32:57 437.345
CUBEBUG 2 27 May 10:41:36 10:43:55 14° 291° (WNW) 10:46:17 437.445
UWE-3 27 May 10:49:37 10:52:46 18° 290° (WNW) 10:55:56 435.000/436.395/437.385
TIGRISAT 27 May 11:14:56 11:19:07 62° 259° (W) 11:23:24 435.000
Oscar 11 27 May 11:19:04 11:22:11 20° 289° (WNW) 11:25:17 .
FO-29 27 May 11:24:48 11:29:53 54° 259° (W) 11:34:59 435.910
QB50P2 27 May 11:32:04 11:32:49 10° 67° (ENE) 11:33:34 145.880/145.840
PRISM 27 May 11:41:00 11:43:55 19° 264° (W) 11:46:50 437.425
EO-88 27 May 11:42:53 11:46:26 46° 284° (WNW) 11:49:57 145.990 - 145.960
UNISAT 6 27 May 11:47:55 11:51:15 22° 264° (W) 11:54:37 437.425
DELFI C3 27 May 11:51:48 11:55:04 26° 287° (WNW) 11:58:21 145.870
SRMSAT 27 May 11:55:14 11:57:54 13° 198° (SSW) 12:00:35 437.500
YUBILEINY 27 May 11:58:48 12:04:41 19° 71° (ENE) 12:10:32 435.215
EO-79 27 May 12:05:56 12:09:25 26° 72° (ENE) 12:12:55 145.935-145.965
RS-15 27 May 12:07:40 12:19:39 62° 59° (ENE) 12:30:58 29.354- 29.394
LO-87 27 May 12:23:16 12:26:46 54° 100° (E) 12:30:15 145.935 - 145.965
AIST 2D 27 May 12:46:15 12:49:24 31° 262° (W) 12:52:35 435.315
NANOSAT C BR1 27 May 12:49:50 12:54:00 89° 50° (NE) 12:58:11 145.865
POLYITAN 1 27 May 12:55:14 12:59:22 69° 259° (W) 13:03:33 437.675
DUCHIFAT 1 27 May 13:00:05 13:04:13 76° 258° (WSW) 13:08:23 145.980
QB50P2 27 May 13:04:06 13:08:07 47° 260° (W) 13:12:10 145.880/145.840
Oscar 19 27 May 13:12:22 13:15:11 15° 66° (ENE) 13:17:59 437.125/150
BUGSAT 1 27 May 13:15:08 13:18:52 39° 74° (ENE) 13:22:37 437.445
ESTCUBE 1 27 May 13:16:44 13:21:10 63° 284° (WNW) 13:25:35 437.505/2401.250
50 SAT 27 May 13:31:48 13:33:51 15° 96° (E) 13:35:55 437.505
EO-79 27 May 13:42:16 13:45:06 18° 264° (W) 13:47:56 145.935-145.965
YUBILEINY 27 May 13:53:20 14:02:07 71° 267° (W) 14:10:52 435.215
SPROUT 27 May 13:55:55 14:00:13 87° 110° (ESE) 14:04:30 437.525
AO-85 27 May 13:58:32 14:01:52 23° 58° (ENE) 14:05:21 145.980
VELOX 1 27 May 14:08:35 14:12:56 68° 284° (WNW) 14:17:17 145.980
RS-15 27 May 14:21:25 14:31:11 31° 256° (WSW) 14:40:36 29.354- 29.394
UKube-1 27 May 14:31:38 14:35:44 43° 100° (E) 14:39:48 .
BEESAT 3 27 May 14:33:11 14:35:45 16° 54° (NE) 14:38:17 437.485
Gurwin Techsat 1B 27 May 14:33:59 14:39:11 62° 75° (ENE) 14:44:26 435.225
O/OREOS (USA 219) 27 May 14:40:47 14:45:08 49° 69° (ENE) 14:49:27 437.305
DX 1 27 May 14:41:04 14:45:24 89° 283° (WNW) 14:49:44 434.975-435.025
Oscar 19 27 May 14:48:57 14:53:59 52° 260° (W) 14:59:03 437.125/150
BUGSAT 1 27 May 14:54:01 14:54:20 10° 266° (W) 14:54:40 437.445
50 SAT 27 May 15:04:13 15:06:36 18° 288° (WNW) 15:08:58 437.505
ITUPSAT 1 27 May 15:31:33 15:34:13 15° 95° (E) 15:36:54 437.325
AO-85 27 May 15:38:48 15:42:07 23° 248° (WSW) 15:45:35 145.980
BEESAT 2 27 May 15:51:38 15:55:32 44° 60° (ENE) 15:59:21 435.950
ITAMSAT 1 27 May 15:52:47 15:57:40 45° 73° (ENE) 16:02:35 435.822/435.867
AO-7 27 May 16:00:28 16:08:36 63° 69° (ENE) 16:16:45 .
BEESAT 27 May 16:02:55 16:07:18 35° 99° (E) 16:11:39 436.000
UKube-1 27 May 16:09:39 16:11:19 12° 292° (WNW) 16:12:58 .
BEESAT 3 27 May 16:09:50 16:13:21 30° 248° (WSW) 16:16:49 437.485
Gurwin Techsat 1B 27 May 16:17:37 16:19:25 12° 267° (W) 16:21:14 435.225
O/OREOS (USA 219) 27 May 16:23:26 16:23:59 10° 262° (W) 16:24:33 437.305
ITUPSAT 1 27 May 17:07:37 17:12:09 42° 287° (WNW) 17:16:39 437.325
MOZHAYETS 4 27 May 17:13:06 17:17:41 63° 284° (WNW) 17:22:15
NO-84 27 May 17:16:51 17:20:24 77° 49° (NE) 17:23:38 435.350 FM
BEESAT 2 27 May 17:32:12 17:32:48 10° 253° (WSW) 17:33:24 435.950
ITAMSAT 1 27 May 17:34:16 17:37:17 16° 265° (W) 17:40:17 435.822/435.867
DOVE 4 27 May 17:38:56 17:41:27 15° 70° (ENE) 17:43:54 437.250
BEESAT 27 May 17:41:32 17:44:45 18° 291° (WNW) 17:47:57 436.000
AO-7 27 May 17:55:41 18:01:41 22° 263° (W) 18:07:44 .
CUTE-I 27 May 17:58:19 18:00:54 14° 66° (ENE) 18:03:28 437.470
KKS-1 27 May 17:58:26 18:02:44 49° 100° (E) 18:07:02 437.445
CUBESAT XI-V 27 May 18:01:55 18:06:32 70° 101° (ESE) 18:11:06 437.345
XW-2F 27 May 18:04:47 18:05:48 11° 69° (ENE) 18:06:48 145.980 - 146.000
XW-2C 27 May 18:06:08 18:07:42 12° 69° (ENE) 18:09:16 145.795 - 145.815
KAITUO 1B 27 May 18:10:59 18:11:28 10° 69° (ENE) 18:11:58 145.475/437.950
PCSat 27 May 18:23:07 18:26:18 16° 104° (ESE) 18:29:27 145.827
STARS 27 May 18:26:18 18:30:27 41° 100° (E) 18:34:35 437.465
LilacSat-2 27 May 18:43:16 18:46:53 42° 75° (ENE) 18:50:32 437.200
DOVE 4 27 May 19:14:26 19:18:50 39° 261° (W) 19:23:01 437.250
XW-2D 27 May 19:16:01 19:19:46 64° 259° (W) 19:23:34 145.860 - 145.880
Tancredo 1 27 May 19:16:06 19:18:45 27° 129° (SE) 19:21:25 437.200
XW-2B 27 May 19:24:05 19:27:46 50° 261° (W) 19:31:29 145.730 - 145.750
NUDT-PHONESAT 27 May 19:31:13 19:34:49 53° 260° (W) 19:38:28 437.300
CUTE-I 27 May 19:35:11 19:40:23 57° 259° (W) 19:45:36 437.470
XW-2F 27 May 19:36:03 19:39:31 35° 262° (W) 19:43:02 145.980 - 146.000
KKS-1 27 May 19:37:27 19:38:48 11° 293° (WNW) 19:40:09 437.445
XW-2C 27 May 19:38:08 19:41:31 31° 262° (W) 19:44:57 145.795 - 145.815
KAITUO 1B 27 May 19:41:34 19:45:03 37° 262° (W) 19:48:34 145.475/437.950
XW-2A 27 May 19:43:50 19:46:14 19° 72° (ENE) 19:48:38 145.665 - 145.685
SEEDS 27 May 19:53:10 19:56:25 22° 72° (ENE) 19:59:41 437.485
STRAND 1 27 May 19:53:50 19:56:57 16° 95° (E) 20:00:03 437.568
CUBEBUG 2 27 May 19:57:06 19:59:47 17° 70° (ENE) 20:02:29 437.445
ISS 27 May 19:58:26 20:01:39 56° 132° (SE) 20:04:53 437.550
PCSat 27 May 20:03:58 20:09:11 50° 297° (WNW) 20:14:27 145.827
STARS 27 May 20:04:17 20:06:22 13° 292° (WNW) 20:08:27 437.465
UWE-3 27 May 20:05:59 20:07:38 12° 68° (ENE) 20:09:16 435.000/436.395/437.385
HO-68 27 May 20:09:36 20:16:44 73° 73° (ENE) 20:23:54 435.675
Oscar 11 27 May 20:34:45 20:35:15 10° 67° (ENE) 20:35:46 .
CUTE 1.7 + AOD 2 27 May 20:40:50 20:44:59 53° 260° (W) 20:49:12 437.475
AAUSAT CUBESAT 2 27 May 20:48:17 20:52:17 46° 75° (ENE) 20:56:17 437.432
Tancredo 1 27 May 20:52:24 20:54:30 17° 323° (NW) 20:56:36 437.200
AO-73 27 May 20:59:35 21:03:07 27° 72° (ENE) 21:06:43 145.935
ZACube-1 27 May 21:13:49 21:17:49 46° 75° (ENE) 21:21:55 437.345
XW-2A 27 May 21:16:57 21:18:51 14° 265° (W) 21:20:46 145.665 - 145.685
SEEDS 27 May 21:28:37 21:31:56 22° 264° (W) 21:35:16 437.485
STRAND 1 27 May 21:31:22 21:36:13 44° 287° (WNW) 21:41:05 437.568
CUBEBUG 2 27 May 21:32:38 21:36:09 27° 263° (W) 21:39:43 437.445
ISS 27 May 21:36:59 21:38:23 12° 326° (NW) 21:39:47 437.550
UWE-3 27 May 21:39:45 21:43:38 39° 261° (W) 21:47:37 435.000/436.395/437.385
M-CUBED/EXP-1 PRIME 27 May 21:48:13 21:51:10 32° 104° (ESE) 21:54:09 437.505
HO-68 27 May 22:00:59 22:04:54 15° 266° (W) 22:08:49 435.675
Oscar 11 27 May 22:06:39 22:10:52 52° 260° (W) 22:15:07 .
EO-88 27 May 22:15:05 22:18:11 27° 73° (ENE) 22:21:18 145.990 - 145.960
SO-50 27 May 22:28:56 22:33:31 70° 116° (ESE) 22:38:03 436.795
DELFI C3 27 May 22:30:24 22:34:22 72° 77° (ENE) 22:38:20 145.870
AO-73 27 May 22:36:31 22:39:19 17° 265° (W) 22:42:10 145.935
